This demonstration page uses our WeatherBlox Daily Observations layout. Learn more.

Left ArrowRight Arrow

Hourly Observations for February 14, 2019

Temp ( °F °C ) Dew Point ( °F °C ) Humidity (%) Winds ( mph kmh ) Pressure ( in mb ) Visibility ( mi km ) Precip ( " mm )
12:15 am 00:15 Clear 30 -1 27 -3 86 86 S 6 9 30.04 1017 10 16 N/A
12:35 am 00:35 Clear 30 -1 27 -3 86 86 S 5 7 30.04 1017 10 16 N/A
12:36 am 00:36 Clear 30 -1 27 -3 86 86 S 5 7 30.04 1017 10 16 N/A
12:55 am 00:55 Clear 30 -1 27 -3 86 86 S 6 9 30.03 1017 10 16 N/A
12:56 am 00:56 Clear 30 -1 27 -3 86 86 S 6 9 30.03 1017 10 16 N/A
1:15 am 01:15 Clear 30 -1 28 -2 93 93 S 6 9 30.03 1017 10 16 N/A
1:35 am 01:35 Clear 32 undefined 28 -2 87 87 S 7 11 30.02 1016 10 16 N/A
1:36 am 01:36 Clear 32 undefined 28 -2 87 87 S 7 11 30.02 1016 10 16 N/A
1:55 am 01:55 Clear 32 undefined 28 -2 87 87 S 7 11 30.01 1016 10 16 N/A
1:56 am 01:56 Clear 32 undefined 28 -2 87 87 S 8 13 30.01 1016 10 16 N/A
2:15 am 02:15 Clear 32 undefined 28 -2 87 87 S 9 15 30.00 1016 10 16 N/A
2:35 am 02:35 Clear 32 undefined 28 -2 87 87 S 9 15 29.99 1015 10 16 N/A
2:36 am 02:36 Clear 32 undefined 28 -2 87 87 S 8 13 29.99 1015 10 16 N/A
2:55 am 02:55 Clear 32 undefined 28 -2 87 87 S 10 17 29.98 1015 10 16 N/A
2:56 am 02:56 Clear 32 undefined 28 -2 87 87 S 10 17 29.98 1015 10 16 N/A
3:15 am 03:15 Clear 32 undefined 28 -2 87 87 S 9 15 29.97 1015 10 16 N/A
3:35 am 03:35 Clear 34 1 30 -1 87 87 S 9 15 29.95 1014 10 16 N/A
3:36 am 03:36 Clear 34 1 30 -1 87 87 S 9 15 29.95 1014 10 16 N/A
3:55 am 03:55 Clear 34 1 30 -1 87 87 S 10 17 29.94 1014 10 16 N/A
4:15 am 04:15 Clear 34 1 30 -1 87 87 S 10 17 29.93 1014 10 16 N/A
4:35 am 04:35 Clear 34 1 30 -1 87 87 S 13 20 29.93 1014 10 16 N/A
4:36 am 04:36 Clear 34 1 30 -1 87 87 S 13 20 29.93 1014 10 16 N/A
4:55 am 04:55 Clear 36 2 30 -1 81 81 S 13 20 29.92 1013 10 16 N/A
5:15 am 05:15 Clear 36 2 30 -1 81 81 S 13 20 29.92 1013 10 16 N/A
5:16 am 05:16 Clear 36 2 30 -1 81 81 S 14 22 29.92 1013 10 16 N/A
5:35 am 05:35 Clear 36 2 30 -1 81 81 S 13 20 29.91 1013 10 16 N/A
5:55 am 05:55 Clear 36 2 30 -1 81 81 S 10 17 29.91 1013 10 16 N/A
6:15 am 06:15 Clear 34 1 30 -1 87 87 S 12 19 29.91 1013 10 16 N/A
6:16 am 06:16 Clear 34 1 30 -1 87 87 S 12 19 29.91 1013 10 16 N/A
6:35 am 06:35 Clear 34 1 30 -1 87 87 S 12 19 29.90 1013 10 16 N/A
6:55 am 06:55 Clear 36 2 30 -1 81 81 S 9 15 29.90 1012 10 16 N/A
7:15 am 07:15 Clear 36 2 30 -1 81 81 S 12 19 29.89 1012 10 16 N/A
7:16 am 07:16 Clear 36 2 30 -1 81 81 S 12 19 29.89 1012 10 16 N/A
7:35 am 07:35 Clear 36 2 30 -1 81 81 S 13 20 29.88 1012 10 16 N/A
7:55 am 07:55 Sunny 36 2 30 -1 81 81 S 14 22 29.87 1011 10 16 N/A
7:56 am 07:56 Sunny 36 2 30 -1 81 81 S 14 22 29.87 1011 10 16 N/A
8:15 am 08:15 Sunny 36 2 32 undefined 87 87 S 12 19 29.87 1011 10 16 N/A
8:16 am 08:16 Sunny 36 2 32 undefined 87 87 S 12 19 29.87 1011 10 16 N/A
8:35 am 08:35 Sunny 37 3 32 undefined 81 81 S 14 22 29.85 1011 10 16 N/A
8:55 am 08:55 Sunny 37 3 32 undefined 81 81 S 13 20 29.85 1011 10 16 N/A
8:56 am 08:56 Sunny 37 3 32 undefined 81 81 S 13 20 29.85 1011 10 16 N/A
9:15 am 09:15 Sunny 37 3 32 undefined 81 81 S 13 20 29.84 1011 10 16 N/A
9:16 am 09:16 Sunny 37 3 32 undefined 81 81 S 13 20 29.84 1011 10 16 N/A
9:35 am 09:35 Sunny 37 3 32 undefined 81 81 S 14 22 29.83 1010 10 16 N/A
9:55 am 09:55 Sunny 37 3 32 undefined 81 81 S 14 22 29.83 1010 10 16 N/A
9:56 am 09:56 Sunny 37 3 32 undefined 81 81 S 14 22 29.83 1010 10 16 N/A
10:15 am 10:15 Sunny 37 3 32 undefined 81 81 S 14 22 29.81 1010 10 16 N/A
10:35 am 10:35 Sunny 39 4 32 undefined 75 75 S 15 24 29.80 1009 10 16 N/A
10:55 am 10:55 Sunny 39 4 34 1 81 81 S 14 22 29.80 1009 10 16 N/A
10:56 am 10:56 Sunny 39 4 34 1 81 81 S 15 24 29.79 1009 10 16 N/A
11:15 am 11:15 Sunny 39 4 34 1 81 81 S 14 22 29.79 1009 10 16 N/A
11:35 am 11:35 Sunny 39 4 34 1 81 81 S 15 24 29.77 1008 10 16 N/A
11:55 am 11:55 Sunny 41 5 34 1 76 76 S 14 22 29.76 1008 10 16 N/A
11:56 am 11:56 Sunny 41 5 34 1 76 76 S 14 22 29.76 1008 10 16 N/A
12:15 pm 12:15 Sunny 41 5 36 2 81 81 S 15 24 29.75 1007 10 16 N/A
12:35 pm 12:35 Sunny 41 5 36 2 81 81 S 15 24 29.75 1007 10 16 N/A
12:36 pm 12:36 Sunny 41 5 36 2 81 81 S 15 24 29.75 1007 10 16 N/A
12:55 pm 12:55 Sunny 43 6 36 2 76 76 S 15 24 29.71 1006 10 16 N/A
12:56 pm 12:56 Sunny 43 6 36 2 76 76 S 14 22 29.71 1006 10 16 N/A
1:15 pm 13:15 Sunny 43 6 36 2 76 76 S 14 22 29.69 1006 10 16 N/A
1:35 pm 13:35 Sunny 43 6 36 2 76 76 S 16 26 29.66 1005 10 16 N/A
1:36 pm 13:36 Sunny 43 6 36 2 76 76 S 16 26 29.66 1005 10 16 N/A
1:55 pm 13:55 Sunny 45 7 37 3 76 76 S 15 24 29.66 1004 10 16 N/A
1:56 pm 13:56 Sunny 45 7 37 3 76 76 S 14 22 29.66 1004 10 16 N/A
2:15 pm 14:15 Sunny 45 7 37 3 76 76 S 13 20 29.65 1004 10 16 N/A
2:35 pm 14:35 Sunny 45 7 37 3 76 76 S 13 20 29.66 1004 10 16 N/A
2:36 pm 14:36 Sunny 45 7 37 3 76 76 S 12 19 29.65 1004 10 16 N/A
2:55 pm 14:55 Sunny 45 7 37 3 76 76 S 10 17 29.65 1004 10 16 N/A
3:15 pm 15:15 Sunny 46 8 37 3 71 71 S 12 19 29.64 1004 10 16 N/A
3:35 pm 15:35 Sunny 45 7 37 3 76 76 S 10 17 29.63 1003 10 16 N/A
3:36 pm 15:36 Sunny 45 7 37 3 76 76 S 9 15 29.63 1003 10 16 N/A
3:55 pm 15:55 Sunny 46 8 39 4 76 76 S 8 13 29.63 1003 10 16 N/A
4:15 pm 16:15 Sunny 48 9 39 4 71 71 S 8 13 29.61 1003 10 16 N/A
4:16 pm 16:16 Sunny 48 9 39 4 71 71 S 8 13 29.61 1003 10 16 N/A
4:35 pm 16:35 Partly Cloudy 48 9 39 4 71 71 S 10 17 29.61 1003 10 16 N/A
4:55 pm 16:55 Mostly Cloudy 46 8 39 4 76 76 S 9 15 29.62 1003 10 16 N/A
4:56 pm 16:56 Mostly Cloudy 46 8 39 4 76 76 S 9 15 29.61 1003 10 16 N/A
5:15 pm 17:15 Cloudy 46 8 39 4 76 76 S 6 9 29.61 1003 10 16 N/A
5:35 pm 17:35 Cloudy 45 7 39 4 81 81 SSW 6 9 29.61 1003 10 16 N/A
5:55 pm 17:55 Cloudy 46 8 39 4 76 76 SW 10 17 29.61 1003 10 16 N/A
5:56 pm 17:56 Cloudy 46 8 39 4 76 76 SW 10 17 29.62 1003 10 16 N/A
6:15 pm 18:15 Cloudy 48 9 41 5 76 76 SW 10 17 29.61 1003 10 16 N/A
6:35 pm 18:35 Cloudy 48 9 43 6 82 82 SW 15 24 29.60 1002 10 16 N/A
6:55 pm 18:55 Cloudy 48 9 43 6 82 82 SW 14 22 29.61 1003 10 16 N/A
6:56 pm 18:56 Cloudy 48 9 43 6 82 82 SW 17 28 29.61 1003 10 16 N/A
7:15 pm 19:15 Cloudy 48 9 43 6 82 82 SW 15 24 29.62 1003 10 16 N/A
7:35 pm 19:35 Cloudy 48 9 45 7 87 87 SW 16 26 29.62 1003 10 16 N/A
7:36 pm 19:36 Cloudy 48 9 45 7 87 87 SW 18 30 29.62 1003 10 16 N/A
7:55 pm 19:55 Cloudy 48 9 45 7 87 87 SW 14 22 29.62 1003 10 16 N/A
8:15 pm 20:15 Cloudy 48 9 45 7 87 87 SW 13 20 29.62 1003 10 16 N/A
8:35 pm 20:35 Cloudy 46 8 45 7 93 93 SW 14 22 29.63 1003 10 16 N/A
8:36 pm 20:36 Cloudy 46 8 45 7 93 93 SW 15 24 29.63 1003 10 16 N/A
8:55 pm 20:55 Partly Cloudy 46 8 43 6 87 87 SW 14 22 29.63 1003 10 16 N/A
9:15 pm 21:15 Mostly Cloudy 46 8 45 7 93 93 SW 14 22 29.63 1003 10 16 N/A
9:16 pm 21:16 Mostly Cloudy 46 8 45 7 93 93 SW 13 20 29.63 1003 10 16 N/A
9:35 pm 21:35 Cloudy 46 8 45 7 93 93 SW 14 22 29.62 1003 10 16 N/A
9:36 pm 21:36 Cloudy 46 8 45 7 93 93 SW 14 22 29.62 1003 10 16 N/A
9:55 pm 21:55 Cloudy 48 9 45 7 87 87 SW 15 24 29.61 1003 10 16 N/A
10:15 pm 22:15 Cloudy 48 9 45 7 87 87 SW 13 20 29.60 1002 10 16 N/A
10:16 pm 22:16 Cloudy 48 9 45 7 87 87 SW 13 20 29.60 1002 10 16 N/A

Powered by AerisWeather